Regional Weather Roundup
Issued by NWS Sterling, VA

Home | Current Version | Previous Version | Graphics & Text | Print | Product List | Glossary On
Versions: 1 2 3 4 5 6 7 8 9 10 11 12 13 14 15 16 17 18 19 20 21 22 23 24 25 26 27 28 29 30 31 32 33 34 35 36 37 38 39 40 41 42 43 44 45 46 47 48 49 50
000
ASUS41 KLWX 300210
RWRLWX

REGIONAL WEATHER ROUNDUP
NATIONAL WEATHER SERVICE BALTIMORE MD/WASHINGTON DC
900 PM EST THU JAN 29 2015

Note: "FAIR" indicates few or no clouds below 12,000 feet
with no significant weather and/or obstructions to visibility.
 TC=TEMPERATURE CELSIUS

 * =Non NWS site. Station does not report precipitation (e.g. rain,
    snow, etc.), thunder, or fog.

DCZ001-MDZ009-015-VAZ040>042-051-053>054-300300-
WASHINGTON METRO

CITY           SKY/WX    TMP DP  RH WIND       PRES   REMARKS
WASHINGTON NAT CLOUDY    36  26  67 S6        30.01F
DULLES         CLOUDY    35  21  56 S10       29.97F WCI  27
ANDREWS AFB    MOCLDY    33  24  68 S7        29.99F
FT BELVOIR     CLOUDY    36  21  53 VRB2      30.01F
QUANTICO       CLOUDY    37  26  64 S14       30.02F WCI  28
COLLEGE PARK*  MOCLDY    32  30  93 CALM      30.01F
LEESBURG*      CLOUDY    32  30  93 S3        29.98F
MANASSAS*      CLOUDY    36  25  64 S6        29.99F
GAITHERSBURG*  CLOUDY    30  23  74 SE8       30.00F WCI  23

$$

MDZ006>007-011-014-300300-
BALTIMORE METRO

CITY           SKY/WX    TMP DP  RH WIND       PRES   REMARKS
BWI AIRPORT    CLOUDY    33  27  78 CALM      30.00F
MD SCIENCE CTR   N/A     34  26  72 MISG      30.01F
ANNAPOLIS      CLOUDY    35  29  78 S14       30.02F WCI  26
FORT MEADE*    MOCLDY    32  28  86 S5        30.03F

$$

MDZ012-015-019>023-300300-
MARYLAND EASTERN SHORE

CITY           SKY/WX    TMP DP  RH WIND       PRES   REMARKS
OCEAN CITY     CLOUDY    36  28  73 SW9       30.10F WCI  29
SALISBURY      CLOUDY    36  25  64 S5        30.08F
BAY BRIDGE AP*   N/A     34  27  75 S14       30.02F WCI  24
CAMBRIDGE*     CLOUDY    36  27  69 S10       30.05F WCI  28
EASTON*        CLOUDY    36  25  64 S9        30.08F WCI  29

$$

MDZ017>025-300300-
SOUTHERN MARYLAND

CITY           SKY/WX    TMP DP  RH WIND       PRES   REMARKS
PATUXENT RIVER CLOUDY    37  25  61 S7        30.05F
ST INIGOES     CLOUDY    37  28  70 S7        30.05F
LEONARDTOWN*   CLOUDY    36  25  64 S6        30.06F

$$

MDZ003>005-300300-
NORTH CENTRAL MARYLAND

CITY           SKY/WX    TMP DP  RH WIND       PRES   REMARKS
FREDERICK*     CLOUDY    34  19  55 CALM      30.00F
HAGERSTOWN APT CLOUDY    34  20  56 S13       29.92F WCI  25
WESTMINSTER*   CLOUDY    30  25  80 S10G17    29.95F WCI  21

$$

MDZ501>502-300300-
WESTERN MARYLAND

CITY           SKY/WX    TMP DP  RH WIND       PRES   REMARKS
OAKLAND*       CLOUDY    36 N/A N/A W15G28    29.81R HAZE    WCI  26
CUMBERLAND*    MOCLDY    30  28  93 CALM      29.93F

$$

VAZ025>031-300300-
SHENANDOAH VALLEY

CITY           SKY/WX    TMP DP  RH WIND       PRES   REMARKS
WINCHESTER*    CLOUDY    36  25  64 S6        29.90F
FRONT ROYAL*   CLOUDY    36  28  75 S3        29.90F
LURAY*         CLOUDY    41  30  65 SW10      29.91F
NEW MARKET*    CLOUDY    38  27  64 SW9       29.91F
STAUNTON*      CLOUDY    38  26  59 S7        29.95F
WAYNESBORO*    CLOUDY    38  26  59 S8        29.93F

$$

WVZ021-048>050-054>055-300300-
EASTERN WEST VIRGINIA PANHANDLE

CITY           SKY/WX    TMP DP  RH WIND       PRES   REMARKS
MARTINSBURG    CLOUDY    36  23  59 CALM      29.91F
PETERSBURG*    CLOUDY    31  25  80 CALM      29.89S

$$

VAZ036>039-050-300300-
CENTRAL FOOTHILLS

CITY           SKY/WX    TMP DP  RH WIND       PRES   REMARKS
CHARLOTTESVILL CLOUDY    39  22  50 S13       29.97F
CULPEPER*      CLOUDY    39  23  52 S6        29.99F
ORANGE*        CLOUDY    39  23  52 S6        30.01F
GORDONSVILLE*  CLOUDY    39  21  49 SW6       29.98F
WARRENTON*     CLOUDY    38  27  65 CALM      29.98F

$$

VAZ055>057-300300-
NORTH AND CENTRAL PIEDMONT

CITY           SKY/WX    TMP DP  RH WIND       PRES   REMARKS
FREDERICKSBRG* CLOUDY    40  19  43 S10       30.00F
STAFFORD*      CLOUDY    38  15  38 CALM      30.04F

$$

NCZ024-NYZ072-PAZ021-071-VAZ022-071-300300-
OTHER REGIONAL OBSERVATIONS

CITY           SKY/WX    TMP DP  RH WIND       PRES   REMARKS
NEW YORK CITY  CLOUDY    35  24  64 VRB3      30.07F
PHILADELPHIA   CLOUDY    33  23  66 S6        30.05F
PITTSBURGH     LGT SNOW  36  34  92 W12       29.87R FOG     WCI  28
ROANOKE        CLOUDY    42  26  53 CALM      30.00F
RICHMOND       CLOUDY    40  19  43 S9        30.06F
RALEIGH        MOCLDY    39  23  52 CALM      30.09F

$$

ANZ530>537-300300-
MARINE OBSERVATIONS

STATION/POSITION TIME  TEMP    WIND        PRES
                       AIR SEA DIR/SP/G
                 (UTC) (F)     (DEG/KT/KT) (MB)
THOMAS PT LIGHT  0200   35 35  170/ 19/ 22 1017.3F
BALT KEY BRIDGE  0200   34     140/ 12/ 13 1016.4F
COVE POINT       0200   36     190/ 18/ 21 1017.6R
LEWISETTA        0200   38 36  200/  8/ 10 1017.5F
SOLOMONS ISLAND  0200      37                N/A
PINEY POINT      0200          170/ 11/ 12   N/A

$$




USA.gov is the U.S. government's official web portal to all federal, state and local government web resources and services.